This is the latest recevied weather packets stored in our database for station/object K0UND-1. If no packets are shown the sender has not sent any weather packets the latest 10 day(s).
| Time | Temp. | Humidity | Pressure | Rain* | Wind** | Luminosity | Snow |
|---|---|---|---|---|---|---|---|
| 1777503614 | 7.22° C | 42% | 1019.6 hPa | 0 mm | - | - | - |
| 1777500006 | 7.22° C | 42% | 1019.6 hPa | 0 mm | - | - | - |
| 1777496410 | 7.22° C | 42% | 1019.6 hPa | 0 mm | - | - | - |
| 1777492808 | 7.22° C | 45% | 1020 hPa | 0 mm | - | - | - |
| 1777489214 | 7.22° C | 42% | 1020 hPa | 0 mm | - | - | - |
| 1777485605 | 6.11° C | 42% | 1020.3 hPa | 0 mm | - | - | - |
| 1777482005 | 6.11° C | 45% | 1020.3 hPa | 0 mm | - | - | - |
| 1777478429 | 5° C | 52% | 1020.7 hPa | 0 mm | - | - | - |
| 1777474805 | 3.89° C | 60% | 1020.3 hPa | 0 mm | - | - | - |
| 1777471209 | 2.22° C | 75% | 1020.3 hPa | 0 mm | - | - | - |
| 1777467606 | 2.22° C | 75% | 1020 hPa | 0 mm | - | - | - |
| 1777464010 | 1.11° C | 75% | 1019.3 hPa | 0 mm | - | - | - |
| 1777460407 | 2.22° C | 69% | 1019.3 hPa | 0 mm | - | - | - |
| 1777456806 | 1.11° C | 75% | 1019 hPa | 0 mm | - | - | - |
| 1777453208 | 2.22° C | 69% | 1019 hPa | 0 mm | - | - | - |
| 1777449610 | 2.22° C | 64% | 1019.3 hPa | 0 mm | - | - | - |
| 1777446011 | 2.22° C | 69% | 1019.6 hPa | 0 mm | - | - | - |
| 1777442417 | 2.78° C | 60% | 1019.6 hPa | 0 mm | - | - | - |
| 1777438811 | 3.89° C | 56% | 1019.6 hPa | 0 mm | - | - | - |
| 1777435205 | 3.89° C | 56% | 1019.3 hPa | 0 mm | - | - | - |
| 1777431605 | 2.78° C | 65% | 1019.3 hPa | 0 mm | - | - | - |
| 1777428011 | 2.78° C | 60% | 1018.3 hPa | 0 mm | - | - | - |
| 1777424410 | 7.22° C | 42% | 1017.9 hPa | 0 mm | - | - | - |
| 1777420807 | 7.78° C | 39% | 1017.9 hPa | 0 mm | - | - | - |
| 1777417204 | 7.78° C | 37% | 1017.6 hPa | 0 mm | - | - | - |
* Rain latest hour (hover to see other rain measurements)
** Current wind speed in m/s (hover to see current wind gust speed)